Index of /20260430/WXO-DD/model_gdps/15km/12/201
Name Last modified Size Description
Parent Directory -
20260430T12Z_MSC_GDPS_AirTemp_AGL-120m_LatLon0.15_PT201H.grib2 2026-04-30 16:29 909K
20260430T12Z_MSC_GDPS_AirTemp_AGL-2m_LatLon0.15_PT201H.grib2 2026-04-30 16:29 1.0M
20260430T12Z_MSC_GDPS_AirTemp_AGL-40m_LatLon0.15_PT201H.grib2 2026-04-30 16:29 813K
20260430T12Z_MSC_GDPS_AirTemp_AGL-80m_LatLon0.15_PT201H.grib2 2026-04-30 16:29 918K
20260430T12Z_MSC_GDPS_AirTemp_IsbL-0001_LatLon0.15_PT201H.grib2 2026-04-30 16:29 668K
20260430T12Z_MSC_GDPS_AirTemp_IsbL-0005_LatLon0.15_PT201H.grib2 2026-04-30 16:29 695K
20260430T12Z_MSC_GDPS_AirTemp_IsbL-0500_LatLon0.15_PT201H.grib2 2026-04-30 16:29 1.0M
20260430T12Z_MSC_GDPS_AirTemp_IsbL-0700_LatLon0.15_PT201H.grib2 2026-04-30 16:29 960K
20260430T12Z_MSC_GDPS_AirTemp_IsbL-0850_LatLon0.15_PT201H.grib2 2026-04-30 16:29 1.1M
20260430T12Z_MSC_GDPS_AirTemp_IsbL-0925_LatLon0.15_PT201H.grib2 2026-04-30 16:29 1.1M
20260430T12Z_MSC_GDPS_AirTemp_IsbL-1000_LatLon0.15_PT201H.grib2 2026-04-30 16:29 1.1M
20260430T12Z_MSC_GDPS_Albedo_Sfc_LatLon0.15_PT201H.grib2 2026-04-30 16:29 243K
20260430T12Z_MSC_GDPS_ConvectivePrecip-Accum_Sfc_LatLon0.15_PT201H.grib2 2026-04-30 16:29 3.9M
20260430T12Z_MSC_GDPS_DewPointDepression_AGL-2m_LatLon0.15_PT201H.grib2 2026-04-30 16:29 766K
20260430T12Z_MSC_GDPS_DewPointDepression_IsbL-0500_LatLon0.15_PT201H.grib2 2026-04-30 16:29 1.0M
20260430T12Z_MSC_GDPS_DewPointDepression_IsbL-0700_LatLon0.15_PT201H.grib2 2026-04-30 16:29 1.1M
20260430T12Z_MSC_GDPS_DewPointDepression_IsbL-0850_LatLon0.15_PT201H.grib2 2026-04-30 16:29 1.2M
20260430T12Z_MSC_GDPS_DewPointDepression_IsbL-0925_LatLon0.15_PT201H.grib2 2026-04-30 16:29 1.0M
20260430T12Z_MSC_GDPS_DewPointDepression_IsbL-1000_LatLon0.15_PT201H.grib2 2026-04-30 16:29 1.0M
20260430T12Z_MSC_GDPS_DewPoint_AGL-2m_LatLon0.15_PT201H.grib2 2026-04-30 16:29 611K
20260430T12Z_MSC_GDPS_DownwardLongwaveRadiationFlux-Accum_Sfc_LatLon0.15_PT201H.grib2 2026-04-30 16:29 712K
20260430T12Z_MSC_GDPS_DownwardShortwaveRadiationFlux-Accum_Sfc_LatLon0.15_PT201H.grib2 2026-04-30 16:29 862K
20260430T12Z_MSC_GDPS_FreezingRain-Accum_Sfc_LatLon0.15_PT201H.grib2 2026-04-30 16:29 514K
20260430T12Z_MSC_GDPS_GeopotentialHeight_IsbL-0001_LatLon0.15_PT201H.grib2 2026-04-30 16:29 439K
20260430T12Z_MSC_GDPS_GeopotentialHeight_IsbL-0005_LatLon0.15_PT201H.grib2 2026-04-30 16:29 496K
20260430T12Z_MSC_GDPS_GeopotentialHeight_IsbL-0500_LatLon0.15_PT201H.grib2 2026-04-30 16:29 532K
20260430T12Z_MSC_GDPS_GeopotentialHeight_IsbL-0700_LatLon0.15_PT201H.grib2 2026-04-30 16:29 695K
20260430T12Z_MSC_GDPS_GeopotentialHeight_IsbL-0850_LatLon0.15_PT201H.grib2 2026-04-30 16:29 716K
20260430T12Z_MSC_GDPS_GeopotentialHeight_IsbL-0925_LatLon0.15_PT201H.grib2 2026-04-30 16:29 737K
20260430T12Z_MSC_GDPS_GeopotentialHeight_IsbL-1000_LatLon0.15_PT201H.grib2 2026-04-30 16:29 791K
20260430T12Z_MSC_GDPS_IcePellets-Accum_Sfc_LatLon0.15_PT201H.grib2 2026-04-30 16:29 160K
20260430T12Z_MSC_GDPS_LatentHeatNetFlux_Sfc_LatLon0.15_PT201H.grib2 2026-04-30 16:29 678K
20260430T12Z_MSC_GDPS_NetLongwaveRadiationFlux-Accum_Sfc_LatLon0.15_PT201H.grib2 2026-04-30 16:29 902K
20260430T12Z_MSC_GDPS_NetShortwaveRadiationFlux-Accum_Sfc_LatLon0.15_PT201H.grib2 2026-04-30 16:29 860K
20260430T12Z_MSC_GDPS_O3MixingRatio_Sfc_LatLon0.15_PT201H.grib2 2026-04-30 16:46 1.9M
20260430T12Z_MSC_GDPS_O3_EAtm_LatLon0.15_PT201H.grib2 2026-04-30 16:46 2.4M
20260430T12Z_MSC_GDPS_PlanetaryBoundaryLayerHeight_Sfc_LatLon0.15_PT201H.grib2 2026-04-30 16:29 2.4M
20260430T12Z_MSC_GDPS_Precip-Accum_Sfc_LatLon0.15_PT201H.grib2 2026-04-30 16:29 5.4M
20260430T12Z_MSC_GDPS_PrecipRate_Sfc_LatLon0.15_PT201H.grib2 2026-04-30 16:29 3.0M
20260430T12Z_MSC_GDPS_Pressure_MSL_LatLon0.15_PT201H.grib2 2026-04-30 16:29 833K
20260430T12Z_MSC_GDPS_Pressure_Sfc_LatLon0.15_PT201H.grib2 2026-04-30 16:29 1.1M
20260430T12Z_MSC_GDPS_RadiativeTemp_Sfc_LatLon0.15_PT201H.grib2 2026-04-30 16:29 663K
20260430T12Z_MSC_GDPS_Rain-Accum_Sfc_LatLon0.15_PT201H.grib2 2026-04-30 16:29 4.3M
20260430T12Z_MSC_GDPS_RelativeHumidity_AGL-2m_LatLon0.15_PT201H.grib2 2026-04-30 16:29 1.0M
20260430T12Z_MSC_GDPS_Runoff-Accum_Sfc_LatLon0.15_PT201H.grib2 2026-04-30 16:29 131K
20260430T12Z_MSC_GDPS_SensibleHeatNetFlux_Sfc_LatLon0.15_PT201H.grib2 2026-04-30 16:29 452K
20260430T12Z_MSC_GDPS_Snow-Accum_Sfc_LatLon0.15_PT201H.grib2 2026-04-30 16:29 2.1M
20260430T12Z_MSC_GDPS_SnowDepth_Sfc_LatLon0.15_PT201H.grib2 2026-04-30 16:29 1.7M
20260430T12Z_MSC_GDPS_SoilTemp_DBS-0to10cm_LatLon0.15_PT201H.grib2 2026-04-30 16:29 516K
20260430T12Z_MSC_GDPS_SoilTemp_Sfc_LatLon0.15_PT201H.grib2 2026-04-30 16:29 582K
20260430T12Z_MSC_GDPS_SoilVolumetricWaterContent_DBS-0to10cm_LatLon0.15_PT201H.grib2 2026-04-30 16:29 596K
20260430T12Z_MSC_GDPS_SoilVolumetricWaterContent_DBS-0to1cm_LatLon0.15_PT201H.grib2 2026-04-30 16:29 650K
20260430T12Z_MSC_GDPS_SpecificHumidity_AGL-120m_LatLon0.15_PT201H.grib2 2026-04-30 16:29 1.1M
20260430T12Z_MSC_GDPS_SpecificHumidity_AGL-2m_LatLon0.15_PT201H.grib2 2026-04-30 16:29 1.2M
20260430T12Z_MSC_GDPS_SpecificHumidity_AGL-40m_LatLon0.15_PT201H.grib2 2026-04-30 16:29 1.1M
20260430T12Z_MSC_GDPS_SpecificHumidity_AGL-80m_LatLon0.15_PT201H.grib2 2026-04-30 16:29 1.1M
20260430T12Z_MSC_GDPS_SpecificHumidity_IsbL-0001_LatLon0.15_PT201H.grib2 2026-04-30 16:29 1.1M
20260430T12Z_MSC_GDPS_SpecificHumidity_IsbL-0005_LatLon0.15_PT201H.grib2 2026-04-30 16:29 1.0M
20260430T12Z_MSC_GDPS_SpecificHumidity_IsbL-0500_LatLon0.15_PT201H.grib2 2026-04-30 16:29 1.5M
20260430T12Z_MSC_GDPS_SpecificHumidity_IsbL-0700_LatLon0.15_PT201H.grib2 2026-04-30 16:29 1.6M
20260430T12Z_MSC_GDPS_SpecificHumidity_IsbL-0850_LatLon0.15_PT201H.grib2 2026-04-30 16:29 2.0M
20260430T12Z_MSC_GDPS_SpecificHumidity_IsbL-0925_LatLon0.15_PT201H.grib2 2026-04-30 16:29 1.6M
20260430T12Z_MSC_GDPS_SpecificHumidity_IsbL-1000_LatLon0.15_PT201H.grib2 2026-04-30 16:29 1.5M
20260430T12Z_MSC_GDPS_SpecificHumidity_Sfc_LatLon0.15_PT201H.grib2 2026-04-30 16:29 675K
20260430T12Z_MSC_GDPS_Thickness_IsbL-0850to0700_LatLon0.15_PT201H.grib2 2026-04-30 16:29 471K
20260430T12Z_MSC_GDPS_Thickness_IsbL-1000to0500_LatLon0.15_PT201H.grib2 2026-04-30 16:29 373K
20260430T12Z_MSC_GDPS_Thickness_IsbL-1000to0850_LatLon0.15_PT201H.grib2 2026-04-30 16:29 490K
20260430T12Z_MSC_GDPS_TotalCloudCover_Sfc_LatLon0.15_PT201H.grib2 2026-04-30 16:29 843K
20260430T12Z_MSC_GDPS_UVIndex-ClearSky_Sfc_LatLon0.15_PT201H.grib2 2026-04-30 16:46 1.0M
20260430T12Z_MSC_GDPS_UVIndex_Sfc_LatLon0.15_PT201H.grib2 2026-04-30 16:46 1.5M
20260430T12Z_MSC_GDPS_UpwardLongwaveRadiationFlux_NTAtm_LatLon0.15_PT201H.grib2 2026-04-30 16:29 845K
20260430T12Z_MSC_GDPS_VerticalVelocity_IsbL-0500_LatLon0.15_PT201H.grib2 2026-04-30 16:29 1.3M
20260430T12Z_MSC_GDPS_VerticalVelocity_IsbL-0700_LatLon0.15_PT201H.grib2 2026-04-30 16:29 1.1M
20260430T12Z_MSC_GDPS_VerticalVelocity_IsbL-0850_LatLon0.15_PT201H.grib2 2026-04-30 16:29 1.6M
20260430T12Z_MSC_GDPS_WindDir_AGL-10m_LatLon0.15_PT201H.grib2 2026-04-30 16:29 1.3M
20260430T12Z_MSC_GDPS_WindDir_AGL-120m_LatLon0.15_PT201H.grib2 2026-04-30 16:29 1.3M
20260430T12Z_MSC_GDPS_WindDir_AGL-40m_LatLon0.15_PT201H.grib2 2026-04-30 16:29 1.4M
20260430T12Z_MSC_GDPS_WindDir_AGL-80m_LatLon0.15_PT201H.grib2 2026-04-30 16:29 1.4M
20260430T12Z_MSC_GDPS_WindDir_IsbL-0001_LatLon0.15_PT201H.grib2 2026-04-30 16:29 665K
20260430T12Z_MSC_GDPS_WindDir_IsbL-0005_LatLon0.15_PT201H.grib2 2026-04-30 16:29 820K
20260430T12Z_MSC_GDPS_WindDir_IsbL-0500_LatLon0.15_PT201H.grib2 2026-04-30 16:29 1.4M
20260430T12Z_MSC_GDPS_WindDir_IsbL-0700_LatLon0.15_PT201H.grib2 2026-04-30 16:29 1.6M
20260430T12Z_MSC_GDPS_WindDir_IsbL-0850_LatLon0.15_PT201H.grib2 2026-04-30 16:29 1.9M
20260430T12Z_MSC_GDPS_WindDir_IsbL-0925_LatLon0.15_PT201H.grib2 2026-04-30 16:29 2.0M
20260430T12Z_MSC_GDPS_WindDir_IsbL-1000_LatLon0.15_PT201H.grib2 2026-04-30 16:29 2.1M
20260430T12Z_MSC_GDPS_WindGust-Max_AGL-10m_LatLon0.15_PT201H.grib2 2026-04-30 16:29 2.2M
20260430T12Z_MSC_GDPS_WindGust-Min_AGL-10m_LatLon0.15_PT201H.grib2 2026-04-30 16:29 2.2M
20260430T12Z_MSC_GDPS_WindGust_AGL-10m_LatLon0.15_PT201H.grib2 2026-04-30 16:29 2.2M
20260430T12Z_MSC_GDPS_WindSpeed_AGL-10m_LatLon0.15_PT201H.grib2 2026-04-30 16:29 1.1M
20260430T12Z_MSC_GDPS_WindSpeed_AGL-120m_LatLon0.15_PT201H.grib2 2026-04-30 16:29 1.3M
20260430T12Z_MSC_GDPS_WindSpeed_AGL-40m_LatLon0.15_PT201H.grib2 2026-04-30 16:29 1.2M
20260430T12Z_MSC_GDPS_WindSpeed_AGL-80m_LatLon0.15_PT201H.grib2 2026-04-30 16:29 1.2M
20260430T12Z_MSC_GDPS_WindSpeed_IsbL-0001_LatLon0.15_PT201H.grib2 2026-04-30 16:29 653K
20260430T12Z_MSC_GDPS_WindSpeed_IsbL-0005_LatLon0.15_PT201H.grib2 2026-04-30 16:29 691K
20260430T12Z_MSC_GDPS_WindSpeed_IsbL-0500_LatLon0.15_PT201H.grib2 2026-04-30 16:29 1.1M
20260430T12Z_MSC_GDPS_WindSpeed_IsbL-0700_LatLon0.15_PT201H.grib2 2026-04-30 16:29 1.5M
20260430T12Z_MSC_GDPS_WindSpeed_IsbL-0850_LatLon0.15_PT201H.grib2 2026-04-30 16:29 1.9M
20260430T12Z_MSC_GDPS_WindSpeed_IsbL-0925_LatLon0.15_PT201H.grib2 2026-04-30 16:29 1.9M
20260430T12Z_MSC_GDPS_WindSpeed_IsbL-1000_LatLon0.15_PT201H.grib2 2026-04-30 16:29 1.9M
20260430T12Z_MSC_GDPS_WindU_AGL-10m_LatLon0.15_PT201H.grib2 2026-04-30 16:29 1.6M
20260430T12Z_MSC_GDPS_WindU_AGL-120m_LatLon0.15_PT201H.grib2 2026-04-30 16:29 1.0M
20260430T12Z_MSC_GDPS_WindU_AGL-40m_LatLon0.15_PT201H.grib2 2026-04-30 16:29 973K
20260430T12Z_MSC_GDPS_WindU_AGL-80m_LatLon0.15_PT201H.grib2 2026-04-30 16:29 1.0M
20260430T12Z_MSC_GDPS_WindU_IsbL-0001_LatLon0.15_PT201H.grib2 2026-04-30 16:29 505K
20260430T12Z_MSC_GDPS_WindU_IsbL-0005_LatLon0.15_PT201H.grib2 2026-04-30 16:29 694K
20260430T12Z_MSC_GDPS_WindU_IsbL-0500_LatLon0.15_PT201H.grib2 2026-04-30 16:29 1.1M
20260430T12Z_MSC_GDPS_WindU_IsbL-0700_LatLon0.15_PT201H.grib2 2026-04-30 16:29 1.2M
20260430T12Z_MSC_GDPS_WindU_IsbL-0850_LatLon0.15_PT201H.grib2 2026-04-30 16:29 1.4M
20260430T12Z_MSC_GDPS_WindU_IsbL-0925_LatLon0.15_PT201H.grib2 2026-04-30 16:29 1.5M
20260430T12Z_MSC_GDPS_WindU_IsbL-1000_LatLon0.15_PT201H.grib2 2026-04-30 16:29 1.4M
20260430T12Z_MSC_GDPS_WindV_AGL-10m_LatLon0.15_PT201H.grib2 2026-04-30 16:29 1.3M
20260430T12Z_MSC_GDPS_WindV_AGL-120m_LatLon0.15_PT201H.grib2 2026-04-30 16:29 1.0M
20260430T12Z_MSC_GDPS_WindV_AGL-40m_LatLon0.15_PT201H.grib2 2026-04-30 16:29 973K
20260430T12Z_MSC_GDPS_WindV_AGL-80m_LatLon0.15_PT201H.grib2 2026-04-30 16:29 1.0M
20260430T12Z_MSC_GDPS_WindV_IsbL-0001_LatLon0.15_PT201H.grib2 2026-04-30 16:29 719K
20260430T12Z_MSC_GDPS_WindV_IsbL-0005_LatLon0.15_PT201H.grib2 2026-04-30 16:29 861K
20260430T12Z_MSC_GDPS_WindV_IsbL-0500_LatLon0.15_PT201H.grib2 2026-04-30 16:29 1.1M
20260430T12Z_MSC_GDPS_WindV_IsbL-0700_LatLon0.15_PT201H.grib2 2026-04-30 16:29 1.2M
20260430T12Z_MSC_GDPS_WindV_IsbL-0850_LatLon0.15_PT201H.grib2 2026-04-30 16:29 1.4M
20260430T12Z_MSC_GDPS_WindV_IsbL-0925_LatLon0.15_PT201H.grib2 2026-04-30 16:29 1.5M
20260430T12Z_MSC_GDPS_WindV_IsbL-1000_LatLon0.15_PT201H.grib2 2026-04-30 16:29 1.4M